CW1334 Weather Reports


time (UTC)temp
C
wind
direction
speed
KPH
gust
KPH
rain 1hr
cm
rain 24hr
cm
rain mn
cm
humidity
%
barometer
mb
20260503033108 14 27 1.6 4.8 0.00 0.00 0.00 43 1015.2
20260503031604 14 78 3.2 8.0 0.00 0.00 0.00 43 1014.9
20260503024600 16 47 3.2 6.4 0.00 0.00 0.00 39 1014.5
20260503023103 16 47 3.2 9.7 0.00 0.00 0.00 38 1014.4
20260503021600 17 53 1.6 4.8 0.00 0.00 0.00 36 1014.4
20260503020055 17 0 0.0 3.2 0.00 0.00 0.00 35 1014.5
20260503014553 18 0 1.6 3.2 0.00 0.00 0.00 34 1014.5
20260503013105 18 0 0.0 6.4 0.00 0.00 0.00 34 1014.4
20260503011602 19 0 0.0 4.8 0.00 0.00 0.00 32 1014.5
20260503010057 19 0 0.0 3.2 0.00 0.00 0.00 33 1014.7
20260503004553 18 296 0.0 4.8 0.00 0.00 0.00 34 1014.8
20260503003108 18 258 1.6 4.8 0.00 0.00 0.00 34 1015.0
20260503001553 18 170 1.6 8.0 0.00 0.00 0.00 35 1015.1
20260503000103 18 155 3.2 8.0 0.00 0.00 0.00 35 1015.3
20260502234554 18 134 3.2 14.5 0.00 0.00 0.00 34 1015.3
20260502233054 18 140 6.4 14.5 0.00 0.00 0.00 34 1015.4
20260502231557 18 0 3.2 9.7 0.00 0.00 0.00 36 1015.6
20260502230055 18 17 4.8 17.7 0.00 0.00 0.00 35 1015.8
20260502224553 18 334 6.4 17.7 0.00 0.00 0.00 35 1015.9
20260502223058 18 248 1.6 16.1 0.00 0.00 0.00 36 1016.3
20260502221556 17 13 8.0 19.3 0.00 0.00 0.00 37 1016.4
20260502220053 17 73 6.4 14.5 0.00 0.00 0.00 37 1016.6
20260502214553 18 287 3.2 8.0 0.00 0.00 0.00 36 1017.0
20260502213054 17 245 4.8 17.7 0.00 0.00 0.00 37 1017.3
20260502211557 17 306 8.0 19.3 0.00 0.00 0.00 37 1017.4
20260502210054 18 302 6.4 17.7 0.00 0.00 0.00 37 1017.6
20260502204600 18 352 8.0 16.1 0.00 0.00 0.00 37 1017.7
20260502203056 18 0 4.8 11.3 0.00 0.00 0.00 38 1017.9
20260502201559 16 67 14.5 24.1 0.00 0.00 0.00 41 1018.0
20260502200057 16 32 4.8 16.1 0.00 0.00 0.00 42 1018.3
20260502194556 15 40 11.3 24.1 0.00 0.00 0.00 43 1018.5
20260502193054 16 44 11.3 20.9 0.00 0.00 0.00 42 1018.5
20260502191603 16 36 11.3 22.5 0.00 0.00 0.00 42 1018.6
20260502190055 15 39 12.9 19.3 0.00 0.00 0.00 43 1018.7
20260502184556 15 54 4.8 16.1 0.00 0.00 0.00 43 1018.8
20260502183055 15 28 9.7 20.9 0.00 0.00 0.00 43 1018.9
20260502181552 16 42 6.4 24.1 0.00 0.00 0.00 42 1019.0
20260502163103 16 360 8.0 25.7 0.00 0.00 0.00 42 1019.0
20260502161559 15 43 9.7 25.7 0.00 0.00 0.00 42 1019.1
20260502151558 14 338 14.5 24.1 0.00 0.00 0.00 44 1018.9
20260502150111 13 32 12.9 22.5 0.00 0.00 0.00 45 1018.7
20260502140109 12 26 8.0 16.1 0.00 0.00 0.00 49 1018.6
20260502130108 10 48 9.7 19.3 0.00 0.00 0.00 54 1018.1
20260502123101 8 344 9.7 17.7 0.00 0.00 0.00 57 1018.0
20260502121558 8 11 11.3 17.7 0.00 0.00 0.00 56 1017.8
20260502114559 8 22 9.7 19.3 0.00 0.00 0.00 56 1017.5
20260502113053 8 5 12.9 19.3 0.00 0.00 0.00 54 1017.2
20260502111554 9 347 8.0 16.1 0.00 0.00 0.00 52 1016.7
20260502110057 8 28 8.0 16.1 0.00 0.00 0.00 52 1016.4
20260502104556 8 321 4.8 14.5 0.00 0.00 0.00 50 1016.3
20260502103053 9 27 9.7 19.3 0.00 0.00 0.00 49 1015.9
20260502101554 10 44 9.7 17.7 0.00 0.00 0.00 47 1015.8
20260502080104 10 306 6.4 11.3 0.00 0.00 0.00 41 1014.7
20260502070057 8 348 4.8 12.9 0.00 0.00 0.00 43 1014.3
20260502064553 8 335 6.4 14.5 0.00 0.00 0.00 42 1014.3
20260502063114 10 321 6.4 17.7 0.00 0.00 0.00 38 1014.3
20260502061553 10 283 8.0 16.1 0.00 0.00 0.00 38 1014.3
20260502060057 10 5 4.8 14.5 0.00 0.00 0.00 37 1014.3
20260502054601 11 16 4.8 12.9 0.00 0.00 0.00 35 1014.3
20260502053102 10 5 3.2 8.0 0.00 0.00 0.00 35 1014.3
20260502051551 11 325 4.8 9.7 0.00 0.00 0.00 34 1014.3
20260502050056 11 18 1.6 8.0 0.00 0.00 0.00 33 1014.3
20260502044556 11 355 3.2 9.7 0.00 0.00 0.00 33 1014.1
20260502043113 11 344 3.2 9.7 0.00 0.00 0.00 32 1014.1
20260502041557 12 55 4.8 12.9 0.00 0.00 0.00 28 1014.1
20260502034558 15 302 9.7 17.7 0.00 0.00 0.00 24 1014.0